Regional Weather Roundup
Issued by NWS

Home | Current Version | Previous Version | Text Only | Print | Product List | Glossary On
Versions: 1 2 3 4 5 6 7 8 9 10 11 12 13 14 15 16 17 18 19 20 21 22 23 24 25 26 27 28 29 30 31 32 33 34 35 36 37 38 39 40 41 42 43 44 45 46 47 48 49 50
000
ASUS43 KDTX 051001
RWRMI
MICHIGAN HOURLY REGIONAL WEATHER ROUNDUP
NATIONAL WEATHER SERVICE DETROIT/PONTIAC MI
500 AM EST MON DEC 05 2016

NOTE: "FAIR" INDICATES FEW OR NO CLOUDS BELOW 12,000 FEET WITH NO
SIGNIFICANT WEATHER AND/OR OBSTRUCTION TO VISIBILITY.

MIZ047>049-052>055-059>063-066>070-074>076-081>083-051100-
SOUTHEAST LOWER MICHIGAN

CITY           SKY/WX    TMP DP  RH WIND       PRES   REMARKS
ADRIAN         CLOUDY    35  32  88 NW13      29.96R WCI  26
ALMA           CLOUDY    33  33  98 W9        29.89R WCI  26
ANN ARBOR      CLOUDY    34  32  92 SW7       29.92R WCI  28
BAD AXE        CLOUDY    32  32 100 W10G17    29.85R WCI  24
CARO           CLOUDY    32  32  99 SW6       29.86S FOG     WCI  27
DETROIT CITY   CLOUDY    35  33  92 W10       29.93R WCI  27
DETROIT        CLOUDY    35  33  92 SW9       29.94R FOG     WCI  28
FLINT          CLOUDY    34  32  92 W8        29.90R WCI  27
GROSSE ILE     CLOUDY    35  32  89 W6        29.93R WCI  30
HILLSDALE      CLOUDY    32  32 100 W14       29.94R WCI  22
HOWELL         CLOUDY    33  32  95 W7        29.91R WCI  27

CITY           SKY/WX    TMP DP  RH WIND       PRES   REMARKS
JACKSON        CLOUDY    34  31  88 W9        29.92R WCI  27
LAMBERTVILLE   CLOUDY    37  33  85 W8        29.97R WCI  30
LANSING        CLOUDY    34  31  88 W13       29.92R WCI  25
LAPEER         NOT AVBL
MASON          CLOUDY    33  32  96 W6        29.91R WCI  28
MONROE         CLOUDY    36  33  90 W12       29.94R WCI  27
MT. CLEMENS    CLOUDY    35  33  92 W7        29.89R WCI  30
PONTIAC        CLOUDY    34  31  88 W10       29.89R WCI  26
PORT HOPE        N/A     34  32  92 SW8       29.81R WCI  27
PORT HURON     CLOUDY    34  32  93 SW6       29.89R FOG     WCI  29
TRI CITIES     CLOUDY    33  32  96 SW9       29.87R FOG     WCI  25
MIDLAND        CLOUDY    33  32  95 SW6       29.86R FOG     WCI  28
TROY           CLOUDY    35  32  90 SW7       29.93R WCI  29
SAGINAW HB     CLOUDY    34  32  93 SW7       29.86S FOG     WCI  28
$$
MIZ043>046-050>051-056>058-064>065-071>073-077>080-051100-
SOUTHWEST LOWER MICHIGAN

CITY           SKY/WX    TMP DP  RH WIND       PRES   REMARKS
BATTLE CREEK   CLOUDY    34  33  96 W12       29.94R WCI  25
BENTON HARBOR  CLOUDY    36  30  79 W17       29.99R WCI  26
BIG RAPIDS     CLOUDY    34  30  86 W9        29.85R WCI  27
COLDWATER      CLOUDY    34  33  95 W10       29.97R WCI  26
FREMONT        CLOUDY    34  30  86 SW5       29.89R WCI  29
HOLLAND        CLOUDY    37  31  78 W10       29.94R WCI  30
GRAND RAPIDS   CLOUDY    35  31  85 W12       29.92R WCI  27
IONIA          CLOUDY    33  32  94 W13       29.91R WCI  24
KALAMAZOO      CLOUDY    35  31  85 W9        29.95R WCI  28
LUDINGTON      CLOUDY    37  32  84 W12G18    29.87R WCI  29
MARSHALL       CLOUDY    34  32  93 W8        29.93R WCI  27
MOUNT PLEASANT CLOUDY    34  32  93 W9        29.85R WCI  26
MUSKEGON       CLOUDY    38  32  79 W13G22    29.92R WCI  30
SOUTH HAVEN    CLOUDY    38  33  83 W12       29.97R WCI  31
$$
MIZ016>042-051100-
NORTHERN LOWER MICHIGAN

CITY           SKY/WX    TMP DP  RH WIND       PRES   REMARKS
ALPENA         CLOUDY    32  30  92 SW7       29.79S WCI  26
BEAVER ISLAND  CLOUDY    36  33  88 W12G21    29.76R WCI  28
BELLAIRE       CLOUDY    34  33  96 S3        29.80R
CADILLAC       CLOUDY    32  30  93 W9        29.80R WCI  24
CHARLEVOIX     CLOUDY    37  33  83 W17G24    29.79R WCI  28
FRANKFORT      CLOUDY    38  34  85 W13       29.82S WCI  30
GAYLORD        LGT SNOW  33  29  85 W15       29.76S FOG     WCI  23
GRAYLING       CLOUDY    33  32  95 SW5       29.80R WCI  29
HARBOR SPRINGS RAIN      36  34  94 SW8G16    29.75S WCI  29
HOUGHTON LAKE  CLOUDY    33  30  88 W14G21    29.81R WCI  23
MANISTEE       CLOUDY    36  31  82 W16G23    29.84R WCI  26
OSCODA         CLOUDY    33  32  95 MISG      29.81S
PELLSTON       CLOUDY    33  31  92 CALM      29.75S
ROGERS CITY    FLURRIES  32  31  96 CALM      29.77F
TRAVERSE CITY  CLOUDY    35  32  88 VRB5      29.81R VSB 1   WCI  31
$$
MIZ007>008-015-051100-
EASTERN UPPER MICHIGAN

CITY           SKY/WX    TMP DP  RH WIND       PRES   REMARKS
KINROSS        LGT SNOW  32  32 100 S9        29.73S FOG     WCI  24
MACKINAC ISLAN MIX PCPN  33  33 100 SW6       29.74S WCI  27
NEWBERRY       CLOUDY    32  31  96 SW9       29.72S WCI  24
S. S. MARIE    LGT SNOW  33  31  92 SE5       29.73S VSB 1   WCI  29
MUNISING         N/A     33  30  88 SW9       29.73R WCI  25
$$
MIZ004>006-011>014-085-051100-
CENTRAL UPPER MICHIGAN

CITY           SKY/WX    TMP DP  RH WIND       PRES   REMARKS
MANISTIQUE     CLOUDY    32  31  94 W3        29.75R
ESCANABA       CLOUDY    32  31  96 SW8       29.77R WCI  25
MENOMINEE      CLOUDY    32  32 100 SW6       29.81S WCI  26
SAWYER-GWINN   CLOUDY    31  29  95 SW7       29.71S WCI  24
$$
MIZ001>003-009>011-084-051100-
WESTERN UPPER MICHIGAN

CITY           SKY/WX    TMP DP  RH WIND       PRES   REMARKS
IRON MOUNTAIN  CLOUDY    33  29  85 SW9       29.73R WCI  25
HOUGHTON       LGT SNOW  34  30  85 W13G21    29.65S FOG     WCI  25
COPPER HARBOR    N/A     33  31  92 W8        29.66S WCI  26
IRONWOOD       CLOUDY    32  29  88 W12       29.73R WCI  23
$$

ABBREVIATIONS USED IN REMARKS
   TC - TEMPERATURE IN CELSIUS
  WCI - WIND CHILL INDEX
   HX - HEAT INDEX
  VSB - VISIBILITY





USA.gov is the U.S. government's official web portal to all federal, state and local government web resources and services.